Voltar ao catálogo

TANSEI 3 DEB

AtivoUNKNOWN
NORAD 9982·DEBRIS·🇯🇵 Japan

Lançado Feb 19, 1977 de Uchinoura Space Center

Loading…

Próximas Passagens (próximas 24 horas)

TLE

EnvelhecendoSource: Space-Track

Época: Aug 18, 2026, 08:42 UTC

1 09982U 77012F   26230.36280631  .00000146  00000-0  46351-3 0  9990
2 09982  65.9040 332.5024 1719236 237.2560 105.1117 10.81081530952994

Acompanhe TANSEI 3 DEB em tempo real com AllMySat

Download on the App Store